AE7VB Weather Reports


time (UTC)temp
C
wind
direction
speed
KPH
gust
KPH
rain 1hr
cm
rain 24hr
cm
rain mn
cm
humidity
%
barometer
mb
20260506050911 13 236 1.6 6.4 0.00 0.00 0.00 52 1018.2
20260506044908 13 276 3.2 11.3 0.00 0.00 0.00 50 1018.0
20260506043907 13 270 3.2 9.7 0.00 0.00 0.00 50 1018.0
20260506042834 13 272 3.2 11.3 0.00 0.00 0.00 50 1017.6
20260506041833 13 253 3.2 11.3 0.00 0.00 0.00 50 1017.6
20260506040833 13 268 4.8 12.9 0.00 0.00 0.00 51 1017.5
20260506035831 14 247 4.8 12.9 0.00 0.00 0.00 50 1017.5
20260506034830 14 261 4.8 11.3 0.00 0.00 0.00 50 1017.1
20260506033829 14 258 4.8 11.3 0.00 0.00 0.00 51 1017.1
20260506032757 15 257 3.2 12.9 0.00 0.00 0.00 51 1016.9
20260506031757 15 284 3.2 12.9 0.00 0.00 0.00 48 1016.9
20260506030755 15 286 6.4 11.3 0.00 0.00 0.00 49 1016.6
20260506025754 16 276 4.8 11.3 0.00 0.00 0.00 48 1016.7
20260506024722 17 295 3.2 12.9 0.00 0.00 0.00 46 1016.8
20260506023721 17 284 4.8 12.9 0.00 0.00 0.00 46 1016.5
20260506022720 18 280 4.8 14.5 0.00 0.00 0.00 45 1016.6
20260506021719 18 294 4.8 14.5 0.00 0.00 0.00 42 1016.6
20260506020647 18 297 3.2 14.5 0.00 0.00 0.00 40 1016.5
20260506015646 19 309 3.2 16.1 0.00 0.00 0.00 38 1016.4
20260506014614 20 305 3.2 16.1 0.00 0.00 0.00 37 1016.0
20260506013541 20 318 3.2 14.5 0.00 0.00 0.00 38 1015.9
20260506012540 20 330 3.2 14.5 0.00 0.00 0.00 38 1015.8
20260506011539 20 323 1.6 9.7 0.00 0.00 0.00 37 1015.8
20260506010539 21 323 3.2 14.5 0.00 0.00 0.00 35 1015.8
20260506005538 21 317 3.2 14.5 0.00 0.00 0.00 36 1015.8
20260506004536 21 319 3.2 9.7 0.00 0.00 0.00 38 1015.8
20260506003535 21 316 1.6 8.0 0.00 0.00 0.00 35 1015.8
20260506002534 21 321 3.2 14.5 0.00 0.00 0.00 35 1015.8
20260506001534 20 319 3.2 8.0 0.00 0.00 0.00 38 1015.8
20260506000532 20 10 1.6 8.0 0.00 0.00 0.00 38 1015.7
20260505235531 20 310 1.6 11.3 0.00 0.00 0.00 37 1015.8
20260505234530 21 303 3.2 17.7 0.00 0.00 0.00 37 1016.3
20260505233458 21 324 3.2 17.7 0.00 0.00 0.00 38 1016.0
20260505232457 20 312 3.2 16.1 0.00 0.00 0.00 40 1016.0
20260505231425 20 304 3.2 12.9 0.00 0.00 0.00 39 1016.0
20260505230352 20 328 3.2 14.5 0.00 0.00 0.00 37 1016.3
20260505225351 20 11 1.6 14.5 0.00 0.00 0.00 37 1016.4
20260505224350 20 19 3.2 6.4 0.00 0.00 0.00 37 1016.5
20260505223348 21 5 1.6 12.9 0.00 0.00 0.00 34 1016.5
20260505222347 21 324 3.2 12.9 0.00 0.00 0.00 36 1016.6
20260505221346 20 336 3.2 6.4 0.00 0.00 0.00 37 1017.0
20260505220345 20 10 3.2 11.3 0.00 0.00 0.00 38 1016.8
20260505215345 21 316 3.2 11.3 0.00 0.00 0.00 39 1017.2
20260505214344 20 325 1.6 16.1 0.00 0.00 0.00 38 1017.0
20260505213343 20 21 3.2 16.1 0.00 0.00 0.00 40 1016.9
20260505212342 20 1 1.6 8.0 0.00 0.00 0.00 39 1016.9
20260505211341 20 302 3.2 8.0 0.00 0.00 0.00 40 1016.9
20260505210339 20 14 3.2 9.7 0.00 0.00 0.00 44 1017.3
20260505205338 20 259 4.8 14.5 0.00 0.00 0.00 39 1017.3
20260505204337 20 304 3.2 14.5 0.00 0.00 0.00 41 1017.4
20260505203336 20 282 3.2 9.7 0.00 0.00 0.00 38 1017.5
20260505202334 20 97 1.6 11.3 0.00 0.00 0.00 41 1017.4
20260505201333 20 309 1.6 11.3 0.00 0.00 0.00 40 1017.4
20260505200332 20 349 3.2 8.0 0.00 0.00 0.00 40 1017.3
20260505195300 19 75 3.2 8.0 0.00 0.00 0.00 40 1017.3
20260505194259 19 31 1.6 4.8 0.00 0.00 0.00 39 1017.2
20260505193258 18 30 1.6 4.8 0.00 0.00 0.00 40 1017.2
20260505192257 18 36 1.6 4.8 0.00 0.00 0.00 42 1017.3
20260505191225 19 43 1.6 4.8 0.00 0.00 0.00 43 1017.5
20260505190224 18 67 1.6 4.8 0.00 0.00 0.00 48 1017.5
20260505185223 18 95 1.6 6.4 0.00 0.00 0.00 48 1017.4
20260505184221 18 52 1.6 14.5 0.00 0.00 0.00 53 1017.5
20260505183220 18 28 3.2 14.5 0.00 0.00 0.00 50 1017.4
20260505182219 18 48 3.2 9.7 0.00 0.00 0.00 53 1017.5
20260505181218 17 24 3.2 8.0 0.00 0.00 0.00 56 1017.5
20260505180216 17 18 1.6 8.0 0.00 0.00 0.00 55 1017.5
20260505175215 17 44 1.6 8.0 0.00 0.00 0.00 58 1017.6
20260505174142 17 55 1.6 6.4 0.00 0.00 0.00 58 1017.6
20260505173141 17 14 3.2 6.4 0.00 0.00 0.00 57 1017.7
20260505172141 17 17 1.6 4.8 0.00 0.00 0.00 60 1017.6
20260505171139 16 5 3.2 6.4 0.00 0.00 0.00 60 1017.5
20260505170137 15 17 1.6 6.4 0.00 0.00 0.00 61 1017.5
20260505165136 15 0 3.2 6.4 0.00 0.00 0.00 60 1017.3
20260505164136 15 37 1.6 6.4 0.00 0.00 0.00 63 1017.2
20260505163103 14 273 1.6 11.3 0.00 0.00 0.00 64 1017.2
20260505162102 14 298 3.2 11.3 0.00 0.00 0.00 67 1017.2
20260505161101 13 279 3.2 6.4 0.00 0.00 0.00 67 1017.1
20260505153057 12 277 3.2 6.4 0.00 0.00 0.00 69 1016.9
20260505152056 12 291 1.6 6.4 0.00 0.00 0.00 69 1016.9
20260505150952 12 300 3.2 4.8 0.00 0.00 0.00 71 1017.0
20260505124837 6 263 0.0 1.6 0.00 0.00 0.00 85 1015.7
20260505123837 6 263 0.0 1.6 0.00 0.00 0.00 85 1015.7
20260505122836 6 263 0.0 0.0 0.00 0.00 0.00 84 1015.8
20260505121834 6 263 0.0 0.0 0.00 0.00 0.00 83 1015.5
20260505120833 6 263 0.0 0.0 0.00 0.00 0.00 83 1015.5
20260505115833 6 263 0.0 3.2 0.00 0.00 0.00 83 1015.5
20260505114832 7 263 0.0 4.8 0.00 0.00 0.00 83 1015.2
20260505113831 7 263 1.6 4.8 0.00 0.00 0.00 83 1015.2
20260505112759 7 281 1.6 6.4 0.00 0.00 0.00 83 1015.3
20260505111757 7 281 0.0 6.4 0.00 0.00 0.00 82 1015.3
20260505110756 7 194 1.6 4.8 0.00 0.00 0.00 81 1015.4
20260505101751 8 217 1.6 3.2 0.00 0.00 0.00 79 1015.1
20260505100750 9 219 1.6 8.0 0.00 0.00 0.00 79 1015.2
20260505095749 9 220 3.2 11.3 0.00 0.00 0.00 80 1015.3
20260505094717 9 225 6.4 11.3 0.00 0.00 0.00 81 1015.2
20260505093716 8 232 4.8 8.0 0.00 0.00 0.00 82 1015.2
20260505092715 8 269 3.2 4.8 0.00 0.00 0.00 81 1015.2
20260505091713 8 247 3.2 4.8 0.00 0.00 0.00 81 1015.1
20260505090641 8 155 0.0 3.2 0.00 0.00 0.00 80 1014.8
20260505085640 9 155 1.6 4.8 0.00 0.00 0.00 80 1014.9
20260505084639 9 155 1.6 4.8 0.00 0.00 0.00 80 1014.9
20260505083638 9 157 3.2 6.4 0.00 0.00 0.00 79 1015.1
20260505082637 10 155 3.2 8.0 0.00 0.00 0.00 79 1015.0
20260505081635 10 151 3.2 8.0 0.00 0.00 0.00 79 1015.3
20260505080634 10 152 3.2 8.0 0.00 0.00 0.00 79 1015.3
20260505075633 10 156 1.6 8.0 0.00 0.00 0.00 78 1015.3
20260505074601 10 150 3.2 4.8 0.00 0.00 0.00 77 1015.3
20260505073600 10 152 3.2 4.8 0.00 0.00 0.00 77 1015.3
20260505072559 10 291 0.0 1.6 0.00 0.00 0.00 76 1015.0
20260505071558 11 309 0.0 1.6 0.00 0.00 0.00 75 1015.2
20260505070526 11 309 0.0 4.8 0.00 0.00 0.00 74 1014.8
20260505065524 11 309 3.2 4.8 0.00 0.00 0.00 73 1014.7
20260505064452 11 151 1.6 3.2 0.00 0.00 0.00 72 1014.5
20260505063451 11 150 1.6 4.8 0.00 0.00 0.00 72 1014.2
20260505062450 12 150 1.6 6.4 0.00 0.00 0.00 72 1014.2
20260505061449 12 144 3.2 6.4 0.00 0.00 0.00 72 1014.6
20260505060447 12 135 3.2 6.4 0.00 0.00 0.00 71 1014.6